Regional Weather Roundup
Issued by NWS

Home | Current Version | Previous Version | Graphics & Text | Print | Product List | Glossary On
Versions: 1 2 3 4 5 6 7 8 9 10 11 12 13 14 15 16 17 18 19 20 21 22 23 24 25 26 27 28 29 30 31 32 33 34 35 36 37 38 39 40 41 42 43 44 45 46 47 48 49 50
000
ASUS45 KBOI 011010
RWRID
WEATHER ROUNDUP FOR IDAHO
NATIONAL WEATHER SERVICE BOISE ID
400 AM MDT WED APR 01 2015

NOTE: "FAIR" INDICATES FEW OR NO CLOUDS BELOW 12000 FEET
WITH NO SIGNIFICANT WEATHER AND/OR OBSTRUCTIONS TO VISIBILITY

IDZ012-014-011100-
SOUTHWEST IDAHO


CITY           SKY/WX    TMP DP  RH WIND       PRES   REMARKS
BOISE          LGT RAIN  39  32  76 W17G24    30.15R WCI  30
CALDWELL       MOCLDY    39  25  56 NW6       30.17F WCI  35
MOUNTAIN HOME  PTCLDY    39  28  65 NW15      30.14R WCI  31
$$

IDZ016-017-011100-
SOUTHCENTRAL IDAHO


CITY           SKY/WX    TMP DP  RH WIND       PRES   REMARKS
BURLEY         CLEAR     37  26  64 W23G36    30.04R WCI  26
JEROME         CLEAR     35  26  69 SW24G31   30.07R WCI  23
TWIN FALLS     CLEAR     37  25  61 SW20G25   30.09R WCI  27
$$

IDZ019>023-011100-
SOUTHEAST IDAHO


CITY           SKY/WX    TMP DP  RH WIND       PRES   REMARKS
IDAHO FALLS    CLEAR     36  22  56 SW24G35   29.95R WCI  24
POCATELLO      CLEAR     36  25  64 SW26G35   30.01S WCI  24
REXBURG        CLOUDY    36  23  59 S16G26    29.92R WCI  26
$$

IDZ006-010-011-018-031-032-011100-
CENTRAL IDAHO MOUNTAINS


CITY           SKY/WX    TMP DP  RH WIND       PRES   REMARKS
MCCALL         CLOUDY    30  25  81 S5        30.04R WCI  25
HAILEY         CLEAR     36  18  48 NW13      29.97R WCI  27
STANLEY          N/A     22  16  78 CALM      30.01S
SALMON         MOCLDY    32  25  74 W5        29.99R WCI  27
CHALLIS        MOCLDY    32  21  64 S3        29.99R
$$

IDZ002-004-006-007-026-011100-
NORTHERN IDAHO


CITY           SKY/WX    TMP DP  RH WIND       PRES   REMARKS
LEWISTON       CLOUDY    44  32  62 SW6       30.11S
LOWELL           N/A     41  39  93 CALM      30.12S
COEUR D`ALENE  PTCLDY    34  25  69 CALM      30.04R
MULLAN PASS    CLEAR     21  18  88 W9G23     29.91R WCI  11
$$



USA.gov is the U.S. government's official web portal to all federal, state and local government web resources and services.